Back to catalog

STARLINK-33889

AliveCommunicationsVLEO
NORAD 63829·PAYLOAD·🇺🇸 United States

Launched May 4, 2025 from Cape Canaveral Space Force Station

Loading…

Next Passes (next 24 hours)

TLE

FreshSource: CelesTrak SupGP

Epoch: Sep 14, 2026, 23:03 UTC

1 63829C 25092AB  26257.96090278 -.00033019  00000+0 -11958-2 0  2579
2 63829  43.0003 183.4540 0001088 266.4749  84.3687 15.27598376    10

Track STARLINK-33889 in real time with AllMySat

Download on the App Store